Starlink 32036

operational
NORAD ID: 60141 Int'l Des: 2024-120 Owner: SPXS Country: US Constellation: starlink
LEOCIRCULAR

Starlink 32036について

説明を読み込み中...

リアルタイム位置

3D地球を読み込み中...

次回通過

高度履歴

Altitude vs Time

uPlot chart will show altitude changes over time

軌道要素

1 60141U 24120G 25352.24763477 -.00002198 00000-0 -62080-4 0 9990
2 60141 53.1623 338.4572 0001645 71.7250 288.3929 15.30205175 83982
Epoch: Dec 18, 2025 • Age: 11 hours

現在のステータス

高度 478.7 km
速度 7.63 km/s
衛星直下点 44.78°N, 38.64°E
打ち上げ日 Jun 27, 2024
運用期間 1.4 years
タイプ internet

技術仕様

分類 Payload
質量 730.00 kg
乾燥質量 700.00 kg
総質量 730.00 kg
長さ 0.30 m
直径 4.10 m
スパン 29.00 m
形状 Box + pan
製造者 SPXS
バスタイプ Starlink V2M
フェーズステータス In Orbit
所有者/国 SPXS/US

大規模コンステレーション

Loading constellations...